Regional Weather Roundup
Issued by NWS

Home | Current Version | Previous Version | Text Only | Print | Product List | Glossary Off
Versions: 1 2 3 4 5 6 7 8 9 10 11 12 13 14 15 16 17 18 19 20 21 22 23 24 25 26 27 28

000
ASUS45 KBOI 281210
RWRID

IDAHO REGIONAL WEATHER ROUNDUP
NATIONAL WEATHER SERVICE BOISE ID
600 AM MDT FRI APR 28 2017

NOTE: "FAIR" INDICATES FEW OR NO CLOUDS BELOW 12000 FEET
WITH NO SIGNIFICANT WEATHER AND/OR OBSTRUCTIONS TO VISIBILITY

IDZ012-014-281300-
SOUTHWEST IDAHO


CITY           SKY/WX    TMP DP  RH WIND       PRES   REMARKS
BOISE          CLEAR     36  32  85 NW7       30.01R WCI  30
CALDWELL       PTCLDY    39  32  76 W14       30.05R WCI  31
MOUNTAIN HOME  CLEAR     35  34  99 NW18      29.97F WCI  24
$$

IDZ016-017-281300-
SOUTHCENTRAL IDAHO


CITY           SKY/WX    TMP DP  RH WIND       PRES   REMARKS
BURLEY         CLOUDY    32  29  88 W10       29.91S WCI  24
JEROME         PTCLDY    30  28  92 SW9       29.92S WCI  22
TWIN FALLS     CLEAR     31  28  89 SW17      29.93S WCI  19
$$

IDZ019>023-281300-
SOUTHEAST IDAHO


CITY           SKY/WX    TMP DP  RH WIND       PRES   REMARKS
IDAHO FALLS    CLOUDY    33  30  88 SW5       29.87S WCI  29
POCATELLO      CLOUDY    31  30  96 SW17      29.90R WCI  19
REXBURG        CLOUDY    34  27  75 VRB5      29.84R WCI  30
$$

IDZ006-010-011-018-031-032-281300-
CENTRAL IDAHO MOUNTAINS


CITY           SKY/WX    TMP DP  RH WIND       PRES   REMARKS
MCCALL         CLOUDY    27  23  85 CALM      29.97R
HAILEY         CLEAR     28  18  64 NW7       29.90R WCI  21
STANLEY          N/A     17  14  88 S3        29.94R
SALMON         CLOUDY    30  25  80 CALM      29.97R
CHALLIS        CLOUDY    31  18  58 MISG      29.95R
$$

IDZ002-004-006-007-026-281300-
NORTHERN IDAHO


CITY           SKY/WX    TMP DP  RH WIND       PRES   REMARKS
LEWISTON       CLOUDY    45  36  70 S7        30.07R
LOWELL           N/A     40  37  89 CALM      30.10R
COEUR D`ALENE  CLOUDY    40  33  76 S12       30.02R WCI  33
MULLAN PASS    CLOUDY    27  27 100 VRB3      29.94R
$$




USA.gov is the U.S. government's official web portal to all federal, state and local government web resources and services.